owner,sensor,date,latitude,longitude,vertical_datum,direction_of_sea_water_velocity,sea_water_speed,upward_sea_water_velocity,qcFlag 
TABS,ioos:station:wmo:42043:1,2017-02-02T00:00:00Z,28.9818,-94.9186,2.0,186.8487142,11.06898821,-99999.0,'11111222,11111222,99999999' 
TABS,ioos:station:wmo:42043:1,2017-02-02T00:30:00Z,28.9818,-94.9186,2.0,298.1103346,27.86706479,-99999.0,'11111222,11111222,99999999' 
TABS,ioos:station:wmo:42043:1,2017-02-02T01:00:00Z,28.9818,-94.9186,2.0,356.2224892,11.53506394,-99999.0,'11111222,11111222,99999999' 
TABS,ioos:station:wmo:42043:1,2017-02-02T01:30:00Z,28.9818,-94.9186,2.0,25.24642201,28.36980085,-99999.0,'11111222,11111222,99999999' 
TABS,ioos:station:wmo:42043:1,2017-02-02T02:00:00Z,28.9818,-94.9186,2.0,34.64503822,23.79994328,-99999.0,'11111222,11111222,99999999' 
TABS,ioos:station:wmo:42043:1,2017-02-02T02:30:00Z,28.9818,-94.9186,2.0,332.7243938,9.012047492,-99999.0,'11133222,11111222,99999999' 
TABS,ioos:station:wmo:42043:1,2017-02-02T03:00:00Z,28.9818,-94.9186,2.0,332.5180453,7.822768052,-99999.0,'11133222,11111222,99999999' 
TABS,ioos:station:wmo:42043:1,2017-02-02T03:30:00Z,28.9818,-94.9186,2.0,316.9559925,7.25206867,-99999.0,'11133222,11111222,99999999' 
TABS,ioos:station:wmo:42043:1,2017-02-02T04:00:00Z,28.9818,-94.9186,2.0,356.8662846,9.69449844,-99999.0,'11133222,11111222,99999999' 
TABS,ioos:station:wmo:42043:1,2017-02-02T04:30:00Z,28.9818,-94.9186,2.0,324.11345,4.196617686,-99999.0,'11133222,11111222,99999999' 
TABS,ioos:station:wmo:42043:1,2017-02-02T05:00:00Z,28.9818,-94.9186,2.0,350.0196464,3.635010316,-99999.0,'11133222,11111222,99999999' 
TABS,ioos:station:wmo:42043:1,2017-02-02T05:30:00Z,28.9818,-94.9186,2.0,359.5537599,3.850116881,-99999.0,'11133222,11144222,99999999' 
TABS,ioos:station:wmo:42043:1,2017-02-02T06:00:00Z,28.9818,-94.9186,2.0,28.11981454,10.71470952,-99999.0,'11111222,11111222,99999999' 
TABS,ioos:station:wmo:42043:1,2017-02-02T06:30:00Z,28.9818,-94.9186,2.0,31.58142853,7.160481827,-99999.0,'11133222,11111222,99999999' 
TABS,ioos:station:wmo:42043:1,2017-02-02T07:00:00Z,28.9818,-94.9186,2.0,35.83439993,7.635247213,-99999.0,'11133222,11111222,99999999' 
TABS,ioos:station:wmo:42043:1,2017-02-02T07:30:00Z,28.9818,-94.9186,2.0,43.50007107,8.643807032,-99999.0,'11133222,11111222,99999999' 
TABS,ioos:station:wmo:42043:1,2017-02-02T08:00:00Z,28.9818,-94.9186,2.0,52.98020031,9.932034031,-99999.0,'11133222,11111222,99999999' 
TABS,ioos:station:wmo:42043:1,2017-02-02T08:30:00Z,28.9818,-94.9186,2.0,78.04752047,12.9405564,-99999.0,'11111222,11111222,99999999' 
TABS,ioos:station:wmo:42043:1,2017-02-02T09:00:00Z,28.9818,-94.9186,2.0,93.20741583,10.36623847,-99999.0,'11111222,11111222,99999999' 
TABS,ioos:station:wmo:42043:1,2017-02-02T09:30:00Z,28.9818,-94.9186,2.0,97.93192726,11.44954148,-99999.0,'11111222,11111222,99999999' 
TABS,ioos:station:wmo:42043:1,2017-02-02T10:00:00Z,28.9818,-94.9186,2.0,93.60223601,12.41452778,-99999.0,'11111222,11111222,99999999' 
TABS,ioos:station:wmo:42043:1,2017-02-02T10:30:00Z,28.9818,-94.9186,2.0,105.6987826,14.04387411,-99999.0,'11111222,11111222,99999999' 
TABS,ioos:station:wmo:42043:1,2017-02-02T11:00:00Z,28.9818,-94.9186,2.0,105.4192963,13.46465001,-99999.0,'11111222,11111222,99999999' 
TABS,ioos:station:wmo:42043:1,2017-02-02T11:30:00Z,28.9818,-94.9186,2.0,113.9803448,12.99135482,-99999.0,'11111222,11111222,99999999' 
TABS,ioos:station:wmo:42043:1,2017-02-02T12:00:00Z,28.9818,-94.9186,2.0,134.5444541,13.34352652,-99999.0,'11111222,11111222,99999999' 
TABS,ioos:station:wmo:42043:1,2017-02-02T12:30:00Z,28.9818,-94.9186,2.0,142.4288285,14.21906467,-99999.0,'11111222,11111222,99999999' 
TABS,ioos:station:wmo:42043:1,2017-02-02T13:00:00Z,28.9818,-94.9186,2.0,158.1280721,13.6096216,-99999.0,'11111222,11111222,99999999' 
TABS,ioos:station:wmo:42043:1,2017-02-02T13:30:00Z,28.9818,-94.9186,2.0,178.6583013,15.80433168,-99999.0,'11111222,11111222,99999999' 
TABS,ioos:station:wmo:42043:1,2017-02-02T14:00:00Z,28.9818,-94.9186,2.0,178.9409807,15.15258724,-99999.0,'11111222,11111222,99999999' 
TABS,ioos:station:wmo:42043:1,2017-02-02T14:30:00Z,28.9818,-94.9186,2.0,183.1136593,16.38419055,-99999.0,'11111222,11111222,99999999' 
TABS,ioos:station:wmo:42043:1,2017-02-02T15:00:00Z,28.9818,-94.9186,2.0,188.0102579,16.93524431,-99999.0,'11111222,11111222,99999999' 
TABS,ioos:station:wmo:42043:1,2017-02-02T15:30:00Z,28.9818,-94.9186,2.0,196.1792124,21.8556217,-99999.0,'11111222,11111222,99999999' 
TABS,ioos:station:wmo:42043:1,2017-02-02T16:00:00Z,28.9818,-94.9186,2.0,187.7197238,20.54622106,-99999.0,'11111222,11111222,99999999' 
TABS,ioos:station:wmo:42043:1,2017-02-02T16:30:00Z,28.9818,-94.9186,2.0,206.7584131,25.14249192,-99999.0,'11111222,11111222,99999999' 
TABS,ioos:station:wmo:42043:1,2017-02-02T17:00:00Z,28.9818,-94.9186,2.0,209.0456727,25.72547764,-99999.0,'11111222,11111222,99999999' 
TABS,ioos:station:wmo:42043:1,2017-02-02T17:30:00Z,28.9818,-94.9186,2.0,208.8963915,25.72266122,-99999.0,'11111222,11111222,99999999' 
TABS,ioos:station:wmo:42043:1,2017-02-02T18:00:00Z,28.9818,-94.9186,2.0,224.6347488,26.64432397,-99999.0,'11111222,11111222,99999999' 
TABS,ioos:station:wmo:42043:1,2017-02-02T18:30:00Z,28.9818,-94.9186,2.0,223.1118521,25.32817009,-99999.0,'11111222,11111222,99999999' 
TABS,ioos:station:wmo:42043:1,2017-02-02T19:00:00Z,28.9818,-94.9186,2.0,227.5407232,23.92373299,-99999.0,'11111222,11111222,99999999' 
TABS,ioos:station:wmo:42043:1,2017-02-02T19:30:00Z,28.9818,-94.9186,2.0,229.9669807,21.64096347,-99999.0,'11111222,11111222,99999999' 
TABS,ioos:station:wmo:42043:1,2017-02-02T20:00:00Z,28.9818,-94.9186,2.0,233.8956787,21.99396508,-99999.0,'11111222,11111222,99999999' 
TABS,ioos:station:wmo:42043:1,2017-02-02T20:30:00Z,28.9818,-94.9186,2.0,246.0015288,22.8666154,-99999.0,'11111222,11111222,99999999' 
TABS,ioos:station:wmo:42043:1,2017-02-02T21:00:00Z,28.9818,-94.9186,2.0,255.4086732,22.54716834,-99999.0,'11111222,11111222,99999999' 
TABS,ioos:station:wmo:42043:1,2017-02-02T21:30:00Z,28.9818,-94.9186,2.0,263.7421594,22.93665189,-99999.0,'11111222,11111222,99999999' 
TABS,ioos:station:wmo:42043:1,2017-02-02T22:00:00Z,28.9818,-94.9186,2.0,263.5741977,21.53527571,-99999.0,'11111222,11111222,99999999' 
TABS,ioos:station:wmo:42043:1,2017-02-02T22:30:00Z,28.9818,-94.9186,2.0,270.1764825,22.78010755,-99999.0,'11111222,11111222,99999999' 
TABS,ioos:station:wmo:42043:1,2017-02-02T23:00:00Z,28.9818,-94.9186,2.0,281.4066983,19.82148582,-99999.0,'11111222,11111222,99999999' 
TABS,ioos:station:wmo:42043:1,2017-02-02T23:30:00Z,28.9818,-94.9186,2.0,278.8558277,20.33236336,-99999.0,'11111222,11111222,99999999' 
TABS,ioos:station:wmo:42043:1,2017-02-03T00:00:00Z,28.9818,-94.9186,2.0,283.7576662,19.42733384,-99999.0,'11111222,11111222,99999999' 
TABS,ioos:station:wmo:42043:1,2017-02-03T00:30:00Z,28.9818,-94.9186,2.0,282.4858592,18.64083957,-99999.0,'11111222,11111222,99999999' 
TABS,ioos:station:wmo:42043:1,2017-02-03T01:00:00Z,28.9818,-94.9186,2.0,295.7531575,18.2973468,-99999.0,'11111222,11111222,99999999' 
TABS,ioos:station:wmo:42043:1,2017-02-03T01:30:00Z,28.9818,-94.9186,2.0,283.3591311,18.87059088,-99999.0,'11111222,11111222,99999999' 
TABS,ioos:station:wmo:42043:1,2017-02-03T02:00:00Z,28.9818,-94.9186,2.0,284.1017402,17.07451903,-99999.0,'11111222,11111222,99999999' 
TABS,ioos:station:wmo:42043:1,2017-02-03T02:30:00Z,28.9818,-94.9186,2.0,289.6767679,17.07714555,-99999.0,'11111222,11111222,99999999' 
TABS,ioos:station:wmo:42043:1,2017-02-03T03:00:00Z,28.9818,-94.9186,2.0,257.9104562,14.27661374,-99999.0,'11111222,11111222,99999999' 
TABS,ioos:station:wmo:42043:1,2017-02-03T03:30:00Z,28.9818,-94.9186,2.0,246.1530213,18.57579608,-99999.0,'11111222,11111222,99999999' 
TABS,ioos:station:wmo:42043:1,2017-02-03T04:00:00Z,28.9818,-94.9186,2.0,237.0395596,23.7292267,-99999.0,'11111222,11111222,99999999' 
TABS,ioos:station:wmo:42043:1,2017-02-03T04:30:00Z,28.9818,-94.9186,2.0,230.7753904,25.99794607,-99999.0,'11111222,11111222,99999999' 
TABS,ioos:station:wmo:42043:1,2017-02-03T05:00:00Z,28.9818,-94.9186,2.0,235.3120058,28.99302675,-99999.0,'11111222,11111222,99999999' 
TABS,ioos:station:wmo:42043:1,2017-02-03T05:30:00Z,28.9818,-94.9186,2.0,235.3056513,31.65882657,-99999.0,'11111222,11111222,99999999' 
TABS,ioos:station:wmo:42043:1,2017-02-03T06:00:00Z,28.9818,-94.9186,2.0,235.3531055,30.57101405,-99999.0,'11111222,11111222,99999999' 
TABS,ioos:station:wmo:42043:1,2017-02-03T06:30:00Z,28.9818,-94.9186,2.0,237.4403672,35.41618415,-99999.0,'11111222,11111222,99999999' 
TABS,ioos:station:wmo:42043:1,2017-02-03T07:00:00Z,28.9818,-94.9186,2.0,238.8056831,35.85378362,-99999.0,'11111222,11111222,99999999' 
TABS,ioos:station:wmo:42043:1,2017-02-03T07:30:00Z,28.9818,-94.9186,2.0,241.4894757,34.65218752,-99999.0,'11111222,11111222,99999999' 
TABS,ioos:station:wmo:42043:1,2017-02-03T08:00:00Z,28.9818,-94.9186,2.0,244.4597296,32.49526889,-99999.0,'11111222,11111222,99999999' 
TABS,ioos:station:wmo:42043:1,2017-02-03T08:30:00Z,28.9818,-94.9186,2.0,246.8393773,31.40062738,-99999.0,'11111222,11111222,99999999' 
TABS,ioos:station:wmo:42043:1,2017-02-03T09:00:00Z,28.9818,-94.9186,2.0,248.5808727,28.91712296,-99999.0,'11111222,11111222,99999999' 
TABS,ioos:station:wmo:42043:1,2017-02-03T09:30:00Z,28.9818,-94.9186,2.0,246.8037589,27.69909204,-99999.0,'11111222,11111222,99999999' 
TABS,ioos:station:wmo:42043:1,2017-02-03T10:00:00Z,28.9818,-94.9186,2.0,247.8627885,26.64402372,-99999.0,'11111222,11111222,99999999' 
TABS,ioos:station:wmo:42043:1,2017-02-03T10:30:00Z,28.9818,-94.9186,2.0,254.214787,26.468111,-99999.0,'11111222,11111222,99999999' 
TABS,ioos:station:wmo:42043:1,2017-02-03T11:00:00Z,28.9818,-94.9186,2.0,253.1687122,24.17559927,-99999.0,'11111222,11111222,99999999' 
TABS,ioos:station:wmo:42043:1,2017-02-03T11:30:00Z,28.9818,-94.9186,2.0,250.1356415,22.1902794,-99999.0,'11111222,11111222,99999999' 
TABS,ioos:station:wmo:42043:1,2017-02-03T12:00:00Z,28.9818,-94.9186,2.0,253.7460942,24.00960016,-99999.0,'11111222,11111222,99999999' 
TABS,ioos:station:wmo:42043:1,2017-02-03T12:30:00Z,28.9818,-94.9186,2.0,251.3126078,23.72047428,-99999.0,'11111222,11111222,99999999' 
TABS,ioos:station:wmo:42043:1,2017-02-03T13:00:00Z,28.9818,-94.9186,2.0,248.1011998,21.93250784,-99999.0,'11111222,11111222,99999999' 
TABS,ioos:station:wmo:42043:1,2017-02-03T13:30:00Z,28.9818,-94.9186,2.0,247.6124647,22.16018276,-99999.0,'11111222,11111222,99999999' 
TABS,ioos:station:wmo:42043:1,2017-02-03T14:00:00Z,28.9818,-94.9186,2.0,240.5300596,20.65202169,-99999.0,'11111222,11111222,99999999' 
TABS,ioos:station:wmo:42043:1,2017-02-03T14:30:00Z,28.9818,-94.9186,2.0,235.2320563,23.00748574,-99999.0,'11111222,11111222,99999999' 
TABS,ioos:station:wmo:42043:1,2017-02-03T15:00:00Z,28.9818,-94.9186,2.0,236.8600672,25.11521053,-99999.0,'11111222,11111222,99999999' 
TABS,ioos:station:wmo:42043:1,2017-02-03T15:30:00Z,28.9818,-94.9186,2.0,240.8908568,26.70260287,-99999.0,'11111222,11111222,99999999' 
TABS,ioos:station:wmo:42043:1,2017-02-03T16:00:00Z,28.9818,-94.9186,2.0,233.4156405,25.65431932,-99999.0,'11111222,11111222,99999999' 
TABS,ioos:station:wmo:42043:1,2017-02-03T16:30:00Z,28.9818,-94.9186,2.0,240.0421069,21.3874566,-99999.0,'11111222,11111222,99999999' 
TABS,ioos:station:wmo:42043:1,2017-02-03T17:00:00Z,28.9818,-94.9186,2.0,234.8668562,25.0054914,-99999.0,'11111222,11111222,99999999' 
TABS,ioos:station:wmo:42043:1,2017-02-03T17:30:00Z,28.9818,-94.9186,2.0,245.9116057,21.31622856,-99999.0,'11111222,11111222,99999999' 
TABS,ioos:station:wmo:42043:1,2017-02-03T18:00:00Z,28.9818,-94.9186,2.0,244.1909243,21.68280425,-99999.0,'11111222,11111222,99999999' 
TABS,ioos:station:wmo:42043:1,2017-02-03T18:30:00Z,28.9818,-94.9186,2.0,226.6875509,26.16723333,-99999.0,'11111222,11111222,99999999' 
TABS,ioos:station:wmo:42043:1,2017-02-03T19:00:00Z,28.9818,-94.9186,2.0,238.7294062,21.48050512,-99999.0,'11111222,11111222,99999999' 
TABS,ioos:station:wmo:42043:1,2017-02-03T19:30:00Z,28.9818,-94.9186,2.0,233.5882623,19.74463218,-99999.0,'11111222,11111222,99999999' 
TABS,ioos:station:wmo:42043:1,2017-02-03T20:00:00Z,28.9818,-94.9186,2.0,238.3331302,19.71524537,-99999.0,'11111222,11111222,99999999' 
TABS,ioos:station:wmo:42043:1,2017-02-03T20:30:00Z,28.9818,-94.9186,2.0,240.282695,17.81263035,-99999.0,'11111222,11111222,99999999' 
TABS,ioos:station:wmo:42043:1,2017-02-03T21:00:00Z,28.9818,-94.9186,2.0,240.9755518,18.24075108,-99999.0,'11111222,11111222,99999999' 
TABS,ioos:station:wmo:42043:1,2017-02-03T21:30:00Z,28.9818,-94.9186,2.0,244.1865649,25.21607424,-99999.0,'11111222,11111222,99999999' 
TABS,ioos:station:wmo:42043:1,2017-02-03T22:00:00Z,28.9818,-94.9186,2.0,249.2921321,29.66652322,-99999.0,'11111222,11111222,99999999' 
TABS,ioos:station:wmo:42043:1,2017-02-03T22:30:00Z,28.9818,-94.9186,2.0,252.6551307,25.09089277,-99999.0,'11111222,11111222,99999999' 
TABS,ioos:station:wmo:42043:1,2017-02-03T23:00:00Z,28.9818,-94.9186,2.0,257.7461887,25.72608015,-99999.0,'11111222,11111222,99999999' 
TABS,ioos:station:wmo:42043:1,2017-02-03T23:30:00Z,28.9818,-94.9186,2.0,258.9986285,24.36778406,-99999.0,'11111222,11111222,99999999' 
TABS,ioos:station:wmo:42043:1,2017-02-04T00:00:00Z,28.9818,-94.9186,2.0,256.8110182,25.90321409,-99999.0,'11111222,11111222,99999999' 
TABS,ioos:station:wmo:42043:1,2017-02-04T00:30:00Z,28.9818,-94.9186,2.0,252.1892221,25.23963748,-99999.0,'11111222,11111222,99999999' 
TABS,ioos:station:wmo:42043:1,2017-02-04T01:00:00Z,28.9818,-94.9186,2.0,253.731826,24.16760021,-99999.0,'11111222,11111222,99999999' 
TABS,ioos:station:wmo:42043:1,2017-02-04T01:30:00Z,28.9818,-94.9186,2.0,251.6572119,25.45320608,-99999.0,'11111222,11111222,99999999' 
TABS,ioos:station:wmo:42043:1,2017-02-04T02:00:00Z,28.9818,-94.9186,2.0,248.020484,28.13483606,-99999.0,'11111222,11111222,99999999' 
TABS,ioos:station:wmo:42043:1,2017-02-04T02:30:00Z,28.9818,-94.9186,2.0,245.9620509,27.88853707,-99999.0,'11111222,11111222,99999999' 
TABS,ioos:station:wmo:42043:1,2017-02-04T03:00:00Z,28.9818,-94.9186,2.0,243.0419849,30.02215349,-99999.0,'11111222,11111222,99999999' 
TABS,ioos:station:wmo:42043:1,2017-02-04T03:30:00Z,28.9818,-94.9186,2.0,237.8710208,31.04422974,-99999.0,'11111222,11111222,99999999' 
TABS,ioos:station:wmo:42043:1,2017-02-04T04:00:00Z,28.9818,-94.9186,2.0,240.953331,33.57249618,-99999.0,'11111222,11111222,99999999' 
TABS,ioos:station:wmo:42043:1,2017-02-04T04:30:00Z,28.9818,-94.9186,2.0,237.5906055,35.35710678,-99999.0,'11111222,11111222,99999999' 
TABS,ioos:station:wmo:42043:1,2017-02-04T05:00:00Z,28.9818,-94.9186,2.0,238.409679,36.40446401,-99999.0,'11111222,11111222,99999999' 
TABS,ioos:station:wmo:42043:1,2017-02-04T05:30:00Z,28.9818,-94.9186,2.0,242.0633224,37.37539966,-99999.0,'11111222,11111222,99999999' 
TABS,ioos:station:wmo:42043:1,2017-02-04T06:00:00Z,28.9818,-94.9186,2.0,242.5365719,39.37752151,-99999.0,'11111222,11111222,99999999' 
TABS,ioos:station:wmo:42043:1,2017-02-04T06:30:00Z,28.9818,-94.9186,2.0,247.4994272,38.6739305,-99999.0,'11111222,11111222,99999999' 
TABS,ioos:station:wmo:42043:1,2017-02-04T07:00:00Z,28.9818,-94.9186,2.0,246.1718711,38.86248191,-99999.0,'11111222,11111222,99999999' 
TABS,ioos:station:wmo:42043:1,2017-02-04T07:30:00Z,28.9818,-94.9186,2.0,244.8967252,39.43471821,-99999.0,'11111222,11111222,99999999' 
TABS,ioos:station:wmo:42043:1,2017-02-04T08:00:00Z,28.9818,-94.9186,2.0,243.447569,39.48448936,-99999.0,'11111222,11111222,99999999' 
TABS,ioos:station:wmo:42043:1,2017-02-04T08:30:00Z,28.9818,-94.9186,2.0,247.0158046,39.23463776,-99999.0,'11111222,11111222,99999999' 
TABS,ioos:station:wmo:42043:1,2017-02-04T09:00:00Z,28.9818,-94.9186,2.0,245.4654131,42.02422397,-99999.0,'11111222,11111222,99999999' 
TABS,ioos:station:wmo:42043:1,2017-02-04T09:30:00Z,28.9818,-94.9186,2.0,247.8116639,39.08418734,-99999.0,'11111222,11111222,99999999' 
TABS,ioos:station:wmo:42043:1,2017-02-04T10:00:00Z,28.9818,-94.9186,2.0,247.840417,41.33287433,-99999.0,'11111222,11111222,99999999' 
TABS,ioos:station:wmo:42043:1,2017-02-04T10:30:00Z,28.9818,-94.9186,2.0,250.5838213,39.34766194,-99999.0,'11111222,11111222,99999999' 
TABS,ioos:station:wmo:42043:1,2017-02-04T11:00:00Z,28.9818,-94.9186,2.0,249.7517002,40.48160693,-99999.0,'11111222,11111222,99999999' 
TABS,ioos:station:wmo:42043:1,2017-02-04T11:30:00Z,28.9818,-94.9186,2.0,250.4411992,40.80438824,-99999.0,'11111222,11111222,99999999' 
TABS,ioos:station:wmo:42043:1,2017-02-04T12:00:00Z,28.9818,-94.9186,2.0,251.6154878,39.22174524,-99999.0,'11111222,11111222,99999999' 
TABS,ioos:station:wmo:42043:1,2017-02-04T12:30:00Z,28.9818,-94.9186,2.0,251.6290918,39.37670631,-99999.0,'11111222,11111222,99999999' 
TABS,ioos:station:wmo:42043:1,2017-02-04T13:00:00Z,28.9818,-94.9186,2.0,250.0951303,37.3619499,-99999.0,'11111222,11111222,99999999' 
TABS,ioos:station:wmo:42043:1,2017-02-04T13:30:00Z,28.9818,-94.9186,2.0,250.1037446,34.23329666,-99999.0,'11111222,11111222,99999999' 
TABS,ioos:station:wmo:42043:1,2017-02-04T14:00:00Z,28.9818,-94.9186,2.0,248.1762994,33.97482156,-99999.0,'11111222,11111222,99999999' 
TABS,ioos:station:wmo:42043:1,2017-02-04T14:30:00Z,28.9818,-94.9186,2.0,246.8384742,38.18785802,-99999.0,'11111222,11111222,99999999' 
TABS,ioos:station:wmo:42043:1,2017-02-04T15:00:00Z,28.9818,-94.9186,2.0,242.8726298,39.21357418,-99999.0,'11111222,11111222,99999999' 
TABS,ioos:station:wmo:42043:1,2017-02-04T15:30:00Z,28.9818,-94.9186,2.0,242.314756,34.78197234,-99999.0,'11111222,11111222,99999999' 
TABS,ioos:station:wmo:42043:1,2017-02-04T16:00:00Z,28.9818,-94.9186,2.0,243.555302,36.08574511,-99999.0,'11111222,11111222,99999999' 
TABS,ioos:station:wmo:42043:1,2017-02-04T16:30:00Z,28.9818,-94.9186,2.0,241.8759095,38.14354467,-99999.0,'11111222,11111222,99999999' 
TABS,ioos:station:wmo:42043:1,2017-02-04T17:00:00Z,28.9818,-94.9186,2.0,239.2913784,39.61485201,-99999.0,'11111222,11111222,99999999' 
TABS,ioos:station:wmo:42043:1,2017-02-04T17:30:00Z,28.9818,-94.9186,2.0,240.8961744,40.99604859,-99999.0,'11111222,11111222,99999999' 
TABS,ioos:station:wmo:42043:1,2017-02-04T18:00:00Z,28.9818,-94.9186,2.0,245.5893181,38.06242898,-99999.0,'11111222,11111222,99999999' 
TABS,ioos:station:wmo:42043:1,2017-02-04T18:30:00Z,28.9818,-94.9186,2.0,244.6852692,47.12517904,-99999.0,'11111222,11111222,99999999' 
TABS,ioos:station:wmo:42043:1,2017-02-04T19:00:00Z,28.9818,-94.9186,2.0,245.4074279,42.21962814,-99999.0,'11111222,11111222,99999999' 
TABS,ioos:station:wmo:42043:1,2017-02-04T19:30:00Z,28.9818,-94.9186,2.0,243.4982518,40.24924844,-99999.0,'11111222,11111222,99999999' 
TABS,ioos:station:wmo:42043:1,2017-02-04T20:00:00Z,28.9818,-94.9186,2.0,240.0535527,39.20390032,-99999.0,'11111222,11111222,99999999' 
TABS,ioos:station:wmo:42043:1,2017-02-04T20:30:00Z,28.9818,-94.9186,2.0,232.0901076,39.24045999,-99999.0,'11111222,11111222,99999999' 
TABS,ioos:station:wmo:42043:1,2017-02-04T21:00:00Z,28.9818,-94.9186,2.0,243.9801797,36.63292645,-99999.0,'11111222,11111222,99999999' 
TABS,ioos:station:wmo:42043:1,2017-02-04T21:30:00Z,28.9818,-94.9186,2.0,238.9060437,37.83611502,-99999.0,'11111222,11111222,99999999' 
TABS,ioos:station:wmo:42043:1,2017-02-04T22:00:00Z,28.9818,-94.9186,2.0,238.5991337,29.92222752,-99999.0,'11111222,11111222,99999999' 
TABS,ioos:station:wmo:42043:1,2017-02-04T22:30:00Z,28.9818,-94.9186,2.0,240.3858471,36.32490743,-99999.0,'11111222,11111222,99999999' 
TABS,ioos:station:wmo:42043:1,2017-02-04T23:00:00Z,28.9818,-94.9186,2.0,244.2938898,36.3804453,-99999.0,'11111222,11111222,99999999' 
TABS,ioos:station:wmo:42043:1,2017-02-04T23:30:00Z,28.9818,-94.9186,2.0,244.3549491,39.25700192,-99999.0,'11111222,11111222,99999999' 
TABS,ioos:station:wmo:42043:1,2017-02-05T00:00:00Z,28.9818,-94.9186,2.0,243.6903139,39.0779132,-99999.0,'11111222,11111222,99999999' 
TABS,ioos:station:wmo:42043:1,2017-02-05T00:30:00Z,28.9818,-94.9186,2.0,244.2537041,38.79079917,-99999.0,'11111222,11111222,99999999' 
TABS,ioos:station:wmo:42043:1,2017-02-05T01:00:00Z,28.9818,-94.9186,2.0,247.6131492,39.28032586,-99999.0,'11111222,11111222,99999999' 
TABS,ioos:station:wmo:42043:1,2017-02-05T01:30:00Z,28.9818,-94.9186,2.0,233.3976496,36.36039741,-99999.0,'11111222,11111222,99999999' 
TABS,ioos:station:wmo:42043:1,2017-02-05T02:00:00Z,28.9818,-94.9186,2.0,238.3041961,38.4085251,-99999.0,'11111222,11111222,99999999' 
TABS,ioos:station:wmo:42043:1,2017-02-05T02:30:00Z,28.9818,-94.9186,2.0,242.5764133,39.71254965,-99999.0,'11111222,11111222,99999999' 
TABS,ioos:station:wmo:42043:1,2017-02-05T03:00:00Z,28.9818,-94.9186,2.0,233.5363532,37.20293671,-99999.0,'11111222,11111222,99999999' 
TABS,ioos:station:wmo:42043:1,2017-02-05T03:30:00Z,28.9818,-94.9186,2.0,247.5302826,39.82321434,-99999.0,'11111222,11111222,99999999' 
TABS,ioos:station:wmo:42043:1,2017-02-05T04:00:00Z,28.9818,-94.9186,2.0,250.0211651,42.14631775,-99999.0,'11111222,11111222,99999999' 
TABS,ioos:station:wmo:42043:1,2017-02-05T04:30:00Z,28.9818,-94.9186,2.0,240.8796142,39.12536262,-99999.0,'11111222,11111222,99999999' 
TABS,ioos:station:wmo:42043:1,2017-02-05T05:00:00Z,28.9818,-94.9186,2.0,241.6645272,39.52570935,-99999.0,'11111222,11111222,99999999' 
TABS,ioos:station:wmo:42043:1,2017-02-05T05:30:00Z,28.9818,-94.9186,2.0,239.606274,41.863164,-99999.0,'11111222,11111222,99999999' 
TABS,ioos:station:wmo:42043:1,2017-02-05T06:00:00Z,28.9818,-94.9186,2.0,240.744952,40.88458511,-99999.0,'11111222,11111222,99999999' 
TABS,ioos:station:wmo:42043:1,2017-02-05T06:30:00Z,28.9818,-94.9186,2.0,242.0279264,42.81124268,-99999.0,'11111222,11111222,99999999' 
TABS,ioos:station:wmo:42043:1,2017-02-05T07:00:00Z,28.9818,-94.9186,2.0,237.955397,43.74506258,-99999.0,'11111222,11111222,99999999' 
TABS,ioos:station:wmo:42043:1,2017-02-05T07:30:00Z,28.9818,-94.9186,2.0,239.6037823,43.77716414,-99999.0,'11111222,11111222,99999999' 
TABS,ioos:station:wmo:42043:1,2017-02-05T08:00:00Z,28.9818,-94.9186,2.0,240.8328337,43.64384264,-99999.0,'11111222,11111222,99999999' 
TABS,ioos:station:wmo:42043:1,2017-02-05T08:30:00Z,28.9818,-94.9186,2.0,240.701164,41.07410863,-99999.0,'11111222,11111222,99999999' 
TABS,ioos:station:wmo:42043:1,2017-02-05T09:00:00Z,28.9818,-94.9186,2.0,241.9671481,38.76824474,-99999.0,'11111222,11111222,99999999' 
TABS,ioos:station:wmo:42043:1,2017-02-05T09:30:00Z,28.9818,-94.9186,2.0,243.1253592,38.11656989,-99999.0,'11111222,11111222,99999999' 
TABS,ioos:station:wmo:42043:1,2017-02-05T10:00:00Z,28.9818,-94.9186,2.0,246.5610772,37.30842398,-99999.0,'11111222,11111222,99999999' 
TABS,ioos:station:wmo:42043:1,2017-02-05T10:30:00Z,28.9818,-94.9186,2.0,242.060946,34.51244703,-99999.0,'11111222,11111222,99999999' 
TABS,ioos:station:wmo:42043:1,2017-02-05T11:00:00Z,28.9818,-94.9186,2.0,247.5106642,30.64007996,-99999.0,'11111222,11111222,99999999' 
TABS,ioos:station:wmo:42043:1,2017-02-05T11:30:00Z,28.9818,-94.9186,2.0,246.256555,29.43103974,-99999.0,'11111222,11111222,99999999' 
TABS,ioos:station:wmo:42043:1,2017-02-05T12:00:00Z,28.9818,-94.9186,2.0,248.4689183,28.69210693,-99999.0,'11111222,11111222,99999999' 
TABS,ioos:station:wmo:42043:1,2017-02-05T12:30:00Z,28.9818,-94.9186,2.0,245.2209431,22.52367865,-99999.0,'11111222,11111222,99999999' 
TABS,ioos:station:wmo:42043:1,2017-02-05T13:00:00Z,28.9818,-94.9186,2.0,246.8846599,25.19247904,-99999.0,'11111222,11111222,99999999' 
TABS,ioos:station:wmo:42043:1,2017-02-05T13:30:00Z,28.9818,-94.9186,2.0,245.967651,18.41636229,-99999.0,'11111222,11111222,99999999' 
TABS,ioos:station:wmo:42043:1,2017-02-05T14:00:00Z,28.9818,-94.9186,2.0,251.3924209,16.82971776,-99999.0,'11111222,11111222,99999999' 
TABS,ioos:station:wmo:42043:1,2017-02-05T14:30:00Z,28.9818,-94.9186,2.0,253.284017,20.13063586,-99999.0,'11111222,11111222,99999999' 
TABS,ioos:station:wmo:42043:1,2017-02-05T15:00:00Z,28.9818,-94.9186,2.0,259.5340865,20.09428028,-99999.0,'11111222,11111222,99999999' 
TABS,ioos:station:wmo:42043:1,2017-02-05T15:30:00Z,28.9818,-94.9186,2.0,264.3002663,20.24005188,-99999.0,'11111222,11111222,99999999' 
TABS,ioos:station:wmo:42043:1,2017-02-05T16:00:00Z,28.9818,-94.9186,2.0,267.5004161,18.11723213,-99999.0,'11111222,11111222,99999999' 